[[{"header":{"parameterUnit":"m.s-1","parameterCategory":1,"la1":30.2991,"la2":30.254,"lo1":-89.0895,"lo2":-89.0444,"dy":0.0017,"dx":0.0017,"nx":28,"ny":28,"refTime":"2023-07-21T21:00:00:Z","depth":0,"parameterNumber":2,"parameterNumberName":"U-component_of_WINDS"},"data":[0,0,0,0,0,0,0,0,0,0,0,0,0,0,0,0,0,0,0,0,0,0,0,0,0,0,0,0,0,0,0,0,0,0,0,0,0,0,0,0,0,0,0,0,0,0,0,0,0,0,0,0,0,0,0,0,0,0,2.7967,2.7968,0,2.803,2.803,2.8031,2.8012,2.8011,2.801,2.8008,2.8075,2.8077,2.808,0,0,0,0,0,0,0,0,0,0,0,0,0,2.7833,2.7836,2.7967,2.7968,2.7969,2.803,2.803,2.8031,2.8013,2.8011,2.8009,2.8008,2.8074,2.8077,2.8081,0,0,0,0,0,0,0,0,0,0,0,0,0,2.7893,2.7836,2.7967,2.7967,2.7967,2.8029,2.803,2.8032,2.8013,2.8011,2.8009,2.8007,2.8072,2.8077,2.8081,2.8148,0,0,2.8095,2.8097,0,0,0,0,0,0,0,0,2.789,2.7898,2.7966,2.7967,2.7967,2.8011,2.8007,2.8071,2.8013,2.7996,2.8008,2.8006,2.8055,2.8061,2.8077,2.8151,2.8154,2.8095,2.8098,2.81,2.8101,0,0,0,0,0,0,0,2.7886,2.7895,2.7992,2.7967,2.7968,2.7964,2.797,2.8019,2.8036,2.7997,2.7996,2.8003,2.8055,2.8073,2.8078,2.8155,2.8095,2.8099,2.8102,2.8104,2.8286,2.8288,0,0,0,0,0,0,2.7881,2.7892,2.799,2.7994,2.7923,2.7968,2.7975,2.7999,2.8035,2.8039,2.8005,2.8002,2.8066,2.8073,2.8081,2.816,2.81,2.8104,2.8107,2.8284,2.8287,2.8289,0,0,0,0,0,0,2.7878,2.789,2.7987,2.7943,2.7955,2.7972,2.8,2.8001,2.8019,2.8041,2.8044,2.802,2.8065,2.8074,2.8131,2.8162,2.8106,2.811,2.8282,2.8285,2.8288,2.832,0,0,0,0,0,0,2.7874,2.7889,2.7914,2.7943,2.7957,2.8036,2.8002,2.8004,2.8026,2.8023,2.8056,2.8059,2.8064,2.8124,2.8135,2.8167,2.8114,2.8279,2.8283,2.8287,2.8316,2.8324,2.833,0,0,0,0,0,2.7869,2.7921,2.7915,2.7927,2.7989,2.8038,2.8046,2.805,2.8029,2.8054,2.8069,2.8058,2.8158,2.813,2.8143,2.8176,2.8277,2.8282,2.8287,2.8313,2.8322,2.833,0,0,0,0,0,0,2.7895,2.7925,2.7918,2.7981,2.8007,2.8035,2.8067,2.806,2.8093,2.8089,2.8093,2.8101,2.8158,2.8173,2.8143,2.8243,2.8214,2.8222,2.823,2.8239,2.8246,2.824,2.8117,0,0,0,0,0,2.7908,2.7945,2.7969,2.8022,2.8035,2.8049,2.8071,2.8071,2.8099,2.811,2.8128,2.8156,2.8193,2.8217,2.8253,2.8319,2.8325,2.8348,2.8356,2.8361,2.8367,2.8402,2.8412,2.8305,2.8305,2.8305,0,0,2.7935,2.7956,2.7979,2.8028,2.8048,2.8086,2.8058,2.81,2.8129,2.8116,2.817,2.8185,2.8216,2.8277,2.8305,2.8292,2.8398,2.8368,2.8372,2.8375,2.8408,2.8418,2.8427,2.8308,2.8308,2.8307,0,0,2.8003,2.8023,2.8068,2.8089,2.812,2.8129,2.814,2.8169,2.8178,2.8232,2.8223,2.8258,2.8323,2.8344,2.8364,2.8441,2.8432,2.8453,2.849,2.8524,2.8532,2.854,2.8565,2.8575,2.846,2.846,2.846,0,2.8032,2.8089,2.8093,2.8135,2.8157,2.8147,2.8193,2.8214,2.8255,2.827,2.8255,2.8335,2.8355,2.8421,2.8439,2.8457,2.8469,2.8448,2.8531,2.8538,2.8545,2.857,2.858,2.8462,2.8462,2.8461,2.8461,0,2.8123,2.8163,2.8196,2.8235,2.8261,2.8305,2.8316,2.8341,2.8341,2.8351,2.8406,2.8431,2.847,2.8487,2.8487,2.8553,2.8543,2.8529,2.85,2.8557,2.858,2.859,2.8465,2.8464,2.8463,2.8463,0,0,2.8207,2.8248,2.826,2.8277,2.8311,2.8342,2.8386,2.8424,2.8446,2.8475,2.8511,2.8566,2.8554,2.8576,2.8579,2.8609,2.8667,2.8591,2.8592,2.8603,2.8739,2.8747,2.8758,2.8662,2.8664,2.8665,2.8735,0,2.8276,2.8352,2.8357,2.8426,2.8463,2.8455,2.8493,2.8518,2.853,2.8563,2.8576,2.8614,2.8596,2.8609,2.8638,2.8653,2.8694,2.8649,2.8695,2.8696,2.8685,2.877,2.8779,2.8844,2.8745,2.8746,2.8747,0,2.8366,2.8397,2.847,2.8498,2.8513,2.8548,2.8583,2.8615,2.8643,2.865,2.8675,2.8673,2.8719,2.869,2.8752,2.8721,2.8741,2.8751,2.8754,2.8757,2.8723,2.8773,2.8865,2.8874,2.8762,2.8761,2.876,0,2.8418,2.8478,2.8529,2.8544,2.8579,2.8603,2.8619,2.8645,2.8668,2.8699,2.8714,2.8751,2.8771,2.8799,2.8808,2.8786,2.8869,2.8842,2.8875,2.8875,2.8891,2.8889,2.8985,2.8907,2.8907,2.8907,2.8907,0,2.8493,2.8537,2.8552,2.8583,2.8632,2.8639,2.8687,2.8702,2.8726,2.8759,2.8756,2.8788,2.8799,2.8832,2.884,2.8889,2.8899,2.8905,2.8906,2.8904,2.8903,2.8915,2.891,2.891,2.8909,2.8909,2.8908,0,2.8557,2.8569,2.8624,2.8652,2.8661,2.8696,2.872,2.875,2.8762,2.8804,2.8815,2.8833,2.8873,2.8885,2.8933,2.8938,2.8995,2.8993,2.8985,2.8984,2.9016,2.9012,2.9121,2.9134,2.905,2.9051,2.9052,0,2.8603,2.8637,2.8669,2.8691,2.8707,2.8744,2.8766,2.8775,2.8799,2.8834,2.8859,2.8898,2.893,2.8993,2.9011,2.9048,2.9045,2.9081,2.9051,2.9047,2.9043,2.904,2.9043,2.9086,2.9087,2.9087,2.9088,0,2.8683,2.8687,2.872,2.8755,2.8782,2.8811,2.8838,2.8856,2.8869,2.8896,2.8936,2.896,2.9009,2.9047,2.9084,2.9101,2.9096,2.9098,2.9107,2.9104,2.9097,2.9099,2.8998,2.9095,2.9094,2.9094,2.9093,2.9093,2.8738,2.8767,2.8794,2.883,2.8852,2.8877,2.8906,2.8922,2.8955,2.8994,2.8998,2.9041,2.9069,2.9118,2.9137,2.9171,2.916,2.9174,2.9177,2.918,2.9181,2.9093,2.9178,2.9178,2.9178,2.9177,2.9177,0,2.8815,2.8832,2.8866,2.8904,2.8933,2.8927,2.8957,2.8981,2.9019,2.9045,2.9076,2.9122,2.9159,2.918,2.9217,2.924,2.9239,2.9249,2.9246,2.925,2.919,2.9177,2.925,2.925,2.925,2.9249,2.9249,2.9249,2.8859,2.8907,2.8915,2.8974,2.8991,2.9032,2.905,2.9073,2.9094,2.9145,2.9176,2.9189,2.9213,2.9252,2.9286,2.9291,2.9304,2.9316,2.9319,2.9262,2.9254,2.9247,2.9235,2.9319,2.9319,2.9377,2.9377,2.9378]},{"header":{"parameterUnit":"m.s-1","parameterCategory":1,"la1":30.2991,"la2":30.254,"lo1":-89.0895,"lo2":-89.0444,"dy":0.0017,"dx":0.0017,"nx":28,"ny":28,"refTime":"2023-07-21T21:00:00:Z","depth":0,"parameterNumber":3,"parameterNumberName":"V-component_of_WINDS"},"data":[0,0,0,0,0,0,0,0,0,0,0,0,0,0,0,0,0,0,0,0,0,0,0,0,0,0,0,0,0,0,0,0,0,0,0,0,0,0,0,0,0,0,0,0,0,0,0,0,0,0,0,0,0,0,0,0,0,0,5.6481,5.6483,0,5.6651,5.6653,5.6655,5.6675,5.6673,5.6672,5.667,5.6832,5.6838,5.6844,0,0,0,0,0,0,0,0,0,0,0,0,0,5.616,5.6166,5.6481,5.6483,5.6485,5.6651,5.6653,5.6656,5.6675,5.6673,5.6671,5.6669,5.6831,5.6837,5.6845,0,0,0,0,0,0,0,0,0,0,0,0,0,5.6311,5.6168,5.6481,5.6515,5.652,5.6651,5.6653,5.6656,5.6676,5.6673,5.6671,5.6668,5.6828,5.6837,5.6845,5.695,0,0,5.6872,5.6876,0,0,0,0,0,0,0,0,5.6303,5.6323,5.6508,5.6513,5.6519,5.664,5.66,5.6754,5.6676,5.6616,5.667,5.6667,5.677,5.6783,5.682,5.6957,5.6964,5.6873,5.6879,5.6882,5.6885,0,0,0,0,0,0,0,5.6292,5.6316,5.6548,5.6511,5.6517,5.6518,5.6537,5.6629,5.6704,5.6621,5.6623,5.6644,5.6772,5.6811,5.6824,5.6967,5.6873,5.6881,5.6886,5.689,5.7193,5.7196,0,0,0,0,0,0,5.6277,5.6307,5.6543,5.6553,5.6403,5.6526,5.6547,5.6603,5.6703,5.6717,5.6646,5.6644,5.6798,5.6814,5.683,5.6956,5.6882,5.689,5.6896,5.719,5.7194,5.7197,0,0,0,0,0,0,5.627,5.6298,5.6536,5.6431,5.6461,5.6534,5.6597,5.6608,5.6648,5.6722,5.6734,5.6673,5.6796,5.6817,5.692,5.6962,5.6894,5.6902,5.7187,5.7192,5.7195,5.721,0,0,0,0,0,0,5.6261,5.6296,5.6339,5.6432,5.6467,5.6627,5.66,5.6613,5.6664,5.6664,5.6751,5.6763,5.6796,5.6906,5.6928,5.6973,5.6909,5.7184,5.7189,5.7194,5.7206,5.7214,5.7221,0,0,0,0,0,5.6249,5.6334,5.6341,5.6369,5.6523,5.6629,5.6649,5.6689,5.6668,5.6709,5.6757,5.676,5.6954,5.6917,5.6942,5.6989,5.7181,5.7188,5.7194,5.7203,5.7212,5.7221,0,0,0,0,0,0,5.6241,5.6347,5.6356,5.6474,5.6543,5.6633,5.6687,5.6698,5.6771,5.6767,5.6809,5.6829,5.6929,5.6969,5.6926,5.7093,5.7065,5.7076,5.7063,5.7073,5.7081,5.7067,5.6917,0,0,0,0,0,5.6254,5.6335,5.6422,5.6517,5.6552,5.6614,5.6661,5.6686,5.6757,5.6785,5.684,5.6905,5.6981,5.7029,5.7103,5.7212,5.7229,5.7257,5.7264,5.727,5.7279,5.7336,5.7348,5.7217,5.7217,5.7217,0,0,5.6279,5.6347,5.6395,5.6517,5.6574,5.6652,5.6638,5.6722,5.678,5.6797,5.6897,5.6939,5.7015,5.712,5.7169,5.7157,5.7319,5.7278,5.7282,5.7288,5.7343,5.7356,5.7367,5.7222,5.7221,5.722,0,0,5.6365,5.6427,5.6512,5.6569,5.6656,5.6696,5.6716,5.6804,5.6834,5.6937,5.695,5.7017,5.7147,5.7199,5.7243,5.7347,5.7352,5.737,5.7408,5.7463,5.7474,5.7483,5.7517,5.7529,5.7378,5.7379,5.7379,0,5.6385,5.6509,5.6554,5.6638,5.669,5.6712,5.6796,5.6848,5.6952,5.6985,5.6971,5.7133,5.7186,5.7302,5.7328,5.7363,5.7384,5.7359,5.7469,5.7479,5.7488,5.7521,5.7534,5.738,5.738,5.738,5.738,0,5.6526,5.6612,5.6669,5.6773,5.6831,5.6915,5.6968,5.7021,5.704,5.708,5.7181,5.7245,5.7331,5.7361,5.7379,5.7479,5.7468,5.7461,5.7433,5.7501,5.7533,5.7546,5.7382,5.7382,5.7381,5.7381,0,0,5.6612,5.674,5.676,5.6806,5.6903,5.6967,5.7049,5.7137,5.7179,5.725,5.7317,5.7426,5.742,5.7469,5.7493,5.7542,5.7617,5.7529,5.7531,5.7541,5.7727,5.773,5.7744,5.7621,5.7624,5.7626,5.7719,0,5.6707,5.686,5.6902,5.7029,5.7105,5.7127,5.7198,5.7262,5.7302,5.7369,5.7411,5.7486,5.7474,5.7504,5.7553,5.7598,5.7654,5.7592,5.768,5.7682,5.7659,5.7761,5.7765,5.785,5.7732,5.7734,5.7736,0,5.6839,5.6915,5.7051,5.7136,5.7169,5.7233,5.7315,5.7381,5.7452,5.7477,5.7532,5.7552,5.7634,5.7603,5.7714,5.767,5.7709,5.7736,5.774,5.7748,5.7712,5.7769,5.7879,5.789,5.7756,5.7755,5.7753,0,5.6883,5.702,5.7118,5.7158,5.726,5.7303,5.7347,5.7417,5.7466,5.7536,5.7568,5.7645,5.7687,5.7744,5.7782,5.7757,5.7889,5.7862,5.7908,5.7907,5.7933,5.793,5.8048,5.7962,5.7962,5.7961,5.7961,0,5.6984,5.7065,5.714,5.72,5.729,5.7336,5.7422,5.7466,5.7528,5.7593,5.7616,5.7676,5.7724,5.7789,5.7819,5.7904,5.7923,5.7942,5.7949,5.7939,5.7936,5.7963,5.7957,5.7965,5.7964,5.7963,5.7963,0,5.7048,5.7102,5.721,5.7299,5.7323,5.7385,5.7458,5.7515,5.7555,5.7638,5.7659,5.7721,5.7799,5.7843,5.794,5.796,5.8054,5.8059,5.8031,5.8033,5.8076,5.807,5.8213,5.8232,5.8135,5.8136,5.8137,0,5.7108,5.7171,5.7267,5.7315,5.736,5.7436,5.7487,5.7533,5.7584,5.767,5.7715,5.7795,5.7862,5.7984,5.8034,5.8108,5.8113,5.8158,5.8124,5.8111,5.811,5.8105,5.811,5.8162,5.8163,5.8164,5.8165,0,5.7206,5.723,5.7305,5.7389,5.745,5.7517,5.7583,5.7619,5.7676,5.7731,5.7813,5.7865,5.7965,5.8043,5.812,5.816,5.817,5.8176,5.8189,5.8179,5.8159,5.8168,5.8044,5.8171,5.8171,5.817,5.817,5.817,5.7268,5.7325,5.7401,5.7483,5.7538,5.76,5.7657,5.7705,5.7776,5.7864,5.7886,5.7971,5.8037,5.8143,5.8185,5.8249,5.824,5.8261,5.8266,5.827,5.827,5.8151,5.8263,5.8263,5.8263,5.8263,5.8263,0,5.7365,5.7416,5.7491,5.7585,5.7648,5.7657,5.773,5.7781,5.7857,5.792,5.7986,5.8078,5.8153,5.821,5.8286,5.8325,5.8332,5.8343,5.8339,5.8348,5.8275,5.8254,5.8337,5.8337,5.8337,5.8337,5.8337,5.8337,5.7423,5.7519,5.7551,5.7673,5.7721,5.7808,5.7849,5.7904,5.7955,5.8058,5.8122,5.816,5.8219,5.8299,5.8367,5.8381,5.8406,5.8417,5.8431,5.8361,5.8353,5.8346,5.8326,5.8423,5.8423,5.8499,5.85,5.85]}]]